Time,TemperatureF,DewpointF,PressureIn,WindDirection,WindDirectionDegrees,WindSpeedMPH,WindSpeedGustMPH,Humidity,HourlyPrecipIn,Conditions,Clouds,dailyrainin,SoftwareType,DateUTC
2017-11-24 00:02:00,29.1,21.9,30.03,WNW,297,0.0,0.0,74,0.00,,---,0.00,VWS V15.00,2017-11-24 05:02:00,
2017-11-24 00:18:00,28.9,22.0,30.03,WNW,297,0.0,0.0,75,0.00,,---,0.00,VWS V15.00,2017-11-24 05:18:00,
2017-11-24 00:23:00,28.9,22.0,30.03,WNW,297,0.0,0.0,75,0.00,,---,0.00,VWS V15.00,2017-11-24 05:23:00,
2017-11-24 00:28:00,28.8,21.9,30.02,WNW,297,0.0,0.0,75,0.00,,---,0.00,VWS V15.00,2017-11-24 05:28:00,
2017-11-24 00:33:00,28.8,21.9,30.02,WNW,297,0.0,0.0,75,0.00,,---,0.00,VWS V15.00,2017-11-24 05:33:00,
2017-11-24 00:39:00,28.7,21.8,30.02,WNW,297,0.0,0.0,75,0.00,,---,0.00,VWS V15.00,2017-11-24 05:39:00,
2017-11-24 00:44:00,28.8,21.9,30.01,WNW,297,0.0,0.0,75,0.00,,---,0.00,VWS V15.00,2017-11-24 05:44:00,
2017-11-24 00:49:00,28.8,21.9,30.01,WNW,297,0.0,0.0,75,0.00,,---,0.00,VWS V15.00,2017-11-24 05:49:00,
2017-11-24 00:54:00,28.7,21.8,30.01,WNW,297,0.0,0.0,75,0.00,,---,0.00,VWS V15.00,2017-11-24 05:54:00,
2017-11-24 00:59:00,28.7,21.8,30.01,WNW,297,0.0,0.0,75,0.00,,---,0.00,VWS V15.00,2017-11-24 05:59:00,
2017-11-24 01:04:00,28.7,21.8,30.01,WNW,297,0.0,0.0,75,0.00,,---,0.00,VWS V15.00,2017-11-24 06:04:00,
2017-11-24 01:09:00,28.8,21.9,30.01,WNW,297,0.0,0.0,75,0.00,,---,0.00,VWS V15.00,2017-11-24 06:09:00,
2017-11-24 01:30:00,29.3,22.1,30.01,WNW,297,0.0,1.0,74,0.00,,---,0.00,VWS V15.00,2017-11-24 06:30:00,
2017-11-24 01:35:00,29.4,22.1,30.02,WNW,297,0.0,0.0,74,0.00,,---,0.00,VWS V15.00,2017-11-24 06:35:00,
2017-11-24 01:40:00,29.5,22.2,30.02,WNW,297,0.0,2.0,74,0.00,,---,0.00,VWS V15.00,2017-11-24 06:40:00,
2017-11-24 01:45:00,29.6,22.4,30.02,WNW,297,1.0,2.0,74,0.00,,---,0.00,VWS V15.00,2017-11-24 06:45:00,
2017-11-24 01:50:00,29.6,22.4,30.02,WNW,297,0.0,2.0,74,0.00,,---,0.00,VWS V15.00,2017-11-24 06:50:00,
2017-11-24 01:55:00,29.7,22.1,30.02,WNW,297,0.0,2.0,73,0.00,,---,0.00,VWS V15.00,2017-11-24 06:55:00,
2017-11-24 02:00:00,29.9,22.3,30.02,WNW,297,0.0,2.0,73,0.00,,---,0.00,VWS V15.00,2017-11-24 07:00:00,
2017-11-24 02:05:00,30.0,22.4,30.02,WNW,297,0.0,1.0,73,0.00,,---,0.00,VWS V15.00,2017-11-24 07:05:00,
2017-11-24 02:10:00,30.1,22.5,30.02,WNW,297,0.0,1.0,73,0.00,,---,0.00,VWS V15.00,2017-11-24 07:10:00,
2017-11-24 02:16:00,30.1,22.5,30.02,WNW,297,0.0,1.0,73,0.00,,---,0.00,VWS V15.00,2017-11-24 07:16:00,
2017-11-24 02:21:00,30.1,22.5,30.02,WNW,297,2.0,2.0,73,0.00,,---,0.00,VWS V15.00,2017-11-24 07:21:00,
2017-11-24 02:26:00,30.2,22.6,30.02,WNW,297,0.0,2.0,73,0.00,,---,0.00,VWS V15.00,2017-11-24 07:26:00,
2017-11-24 02:31:00,30.1,22.5,30.02,WNW,297,0.0,2.0,73,0.00,,---,0.00,VWS V15.00,2017-11-24 07:31:00,
2017-11-24 02:41:00,29.8,22.2,30.02,WNW,297,0.0,0.0,73,0.00,,---,0.00,VWS V15.00,2017-11-24 07:41:00,
2017-11-24 02:46:00,29.7,22.4,30.02,WNW,297,0.0,0.0,74,0.00,,---,0.00,VWS V15.00,2017-11-24 07:46:00,
2017-11-24 02:52:00,29.5,22.2,30.02,WNW,297,0.0,0.0,74,0.00,,---,0.00,VWS V15.00,2017-11-24 07:52:00,
2017-11-24 03:02:00,29.4,22.5,30.01,WNW,297,0.0,1.0,75,0.00,,---,0.00,VWS V15.00,2017-11-24 08:02:00,
2017-11-24 03:07:00,29.4,22.5,30.01,WNW,297,0.0,0.0,75,0.00,,---,0.00,VWS V15.00,2017-11-24 08:07:00,
2017-11-24 03:12:00,29.5,22.6,30.01,WNW,297,0.0,2.0,75,0.00,,---,0.00,VWS V15.00,2017-11-24 08:12:00,
2017-11-24 03:27:00,29.2,22.6,30.02,WNW,297,0.0,3.0,76,0.00,,---,0.00,VWS V15.00,2017-11-24 08:27:00,
2017-11-24 03:32:00,28.9,22.3,30.02,WNW,297,2.0,3.0,76,0.00,,---,0.00,VWS V15.00,2017-11-24 08:32:00,
2017-11-24 03:38:00,28.8,22.5,30.02,WNW,297,0.0,2.0,77,0.00,,---,0.00,VWS V15.00,2017-11-24 08:38:00,
2017-11-24 03:43:00,28.7,22.4,30.01,WNW,297,0.0,2.0,77,0.00,,---,0.00,VWS V15.00,2017-11-24 08:43:00,
2017-11-24 03:48:00,28.5,22.2,30.01,WNW,297,2.0,2.0,77,0.00,,---,0.00,VWS V15.00,2017-11-24 08:48:00,
2017-11-24 03:53:00,28.2,22.2,30.02,WNW,297,0.0,2.0,78,0.00,,---,0.00,VWS V15.00,2017-11-24 08:53:00,
2017-11-24 03:58:00,28.1,22.1,30.01,WNW,297,0.0,2.0,78,0.00,,---,0.00,VWS V15.00,2017-11-24 08:58:00,
2017-11-24 04:03:00,28.3,22.3,30.02,WNW,297,0.0,2.0,78,0.00,,---,0.00,VWS V15.00,2017-11-24 09:03:00,
2017-11-24 04:08:00,28.5,22.8,30.02,WNW,297,0.0,2.0,79,0.00,,---,0.00,VWS V15.00,2017-11-24 09:08:00,
2017-11-24 04:13:00,28.6,22.6,30.01,WNW,297,0.0,3.0,78,0.00,,---,0.00,VWS V15.00,2017-11-24 09:13:00,
2017-11-24 04:24:00,28.8,22.8,30.01,WNW,297,0.0,3.0,78,0.00,,---,0.00,VWS V15.00,2017-11-24 09:24:00,
2017-11-24 04:30:00,28.8,22.8,30.01,WNW,297,0.0,3.0,78,0.00,,---,0.00,VWS V15.00,2017-11-24 09:30:00,
2017-11-24 04:40:00,29.3,23.3,30.02,WNW,297,0.0,2.0,78,0.00,,---,0.00,VWS V15.00,2017-11-24 09:40:00,
2017-11-24 04:45:00,29.6,23.3,30.02,WNW,297,0.0,2.0,77,0.00,,---,0.00,VWS V15.00,2017-11-24 09:45:00,
2017-11-24 04:51:00,29.7,23.4,30.02,WNW,297,0.0,2.0,77,0.00,,---,0.00,VWS V15.00,2017-11-24 09:51:00,
2017-11-24 04:56:00,29.7,23.4,30.02,WNW,297,0.0,2.0,77,0.00,,---,0.00,VWS V15.00,2017-11-24 09:56:00,
2017-11-24 05:01:00,29.6,23.3,30.02,WNW,297,0.0,2.0,77,0.00,,---,0.00,VWS V15.00,2017-11-24 10:01:00,
2017-11-24 05:06:00,29.6,23.3,30.02,WNW,297,0.0,0.0,77,0.00,,---,0.00,VWS V15.00,2017-11-24 10:06:00,
2017-11-24 05:11:00,29.4,23.1,30.02,WNW,297,0.0,0.0,77,0.00,,---,0.00,VWS V15.00,2017-11-24 10:11:00,
2017-11-24 05:16:00,29.3,23.0,30.03,WNW,297,0.0,0.0,77,0.00,,---,0.00,VWS V15.00,2017-11-24 10:16:00,
2017-11-24 05:21:00,29.2,22.9,30.03,WNW,297,0.0,0.0,77,0.00,,---,0.00,VWS V15.00,2017-11-24 10:21:00,
2017-11-24 05:26:00,29.1,23.1,30.03,WNW,297,0.0,0.0,78,0.00,,---,0.00,VWS V15.00,2017-11-24 10:26:00,
2017-11-24 05:31:00,29.0,23.0,30.03,WNW,297,0.0,0.0,78,0.00,,---,0.00,VWS V15.00,2017-11-24 10:31:00,